When you browse on this site, cookies collect data to enhance your experience and personalize the content and advertising you see.
Visit our Privacy Policy to learn more. By continuing to use the site, you agree to this use of cookies and data.
  • In Denmark
  • List of Countries
  • For 7 days
  • Water Temperature
  • Satellite Maps
  • Weather Map
  • Weather Widgets
  • user-avatar
    Login

    Hourly Weather Grzybiany

    Today, 24 July, Wednesday

    Time Temperature Precipitation Wind Pressure Humidity
    00:00 +21°C° 0 mm 1 mps 753 mmHg 87%
    01:00 +21°C° 0 mm 1 mps 753 mmHg 88%
    02:00 +20°C° 0 mm 1 mps 753 mmHg 89%
    03:00 +20°C° 0 mm 1 mps 753 mmHg 91%
    04:00 +20°C° 0 mm 1 mps 752 mmHg 92%
    05:00 +21°C° 0 mm 1 mps 752 mmHg 87%
    06:00 +22°C° 0 mm 1 mps 752 mmHg 83%
    07:00 +23°C° 0 mm 1 mps 752 mmHg 78%
    08:00 +25°C° 0 mm 1 mps 752 mmHg 69%
    09:00 +26°C° 0 mm 2 mps 753 mmHg 61%
    10:00 +28°C° 0 mm 2 mps 753 mmHg 52%
    11:00 +29°C° 0 mm 2 mps 752 mmHg 47%
    12:00 +30°C° 0 mm 2 mps 752 mmHg 41%
    13:00 +31°C° 0 mm 2 mps 752 mmHg 36%
    14:00 +31°C° 0 mm 2 mps 752 mmHg 35%
    15:00 +31°C° 0 mm 2 mps 752 mmHg 34%
    16:00 +32°C° 0 mm 2 mps 752 mmHg 33%
    17:00 +30°C° 0 mm 2 mps 752 mmHg 42%
    18:00 +28°C° 0 mm 2 mps 751 mmHg 51%
    19:00 +27°C° 0 mm 2 mps 751 mmHg 60%
    20:00 +25°C° 0 mm 2 mps 752 mmHg 66%
    21:00 +24°C° 0 mm 2 mps 752 mmHg 73%
    22:00 +22°C° 0 mm 1 mps 752 mmHg 79%
    23:00 +22°C° 0 mm 1 mps 752 mmHg 81%

    Tomorrow, 25 July, Thursday

    Time Temperature Precipitation Wind Pressure Humidity
    00:00 +21°C° 0 mm 1 mps 752 mmHg 83%
    01:00 +21°C° 0 mm 1 mps 752 mmHg 84%
    02:00 +21°C° 0 mm 1 mps 752 mmHg 84%
    03:00 +20°C° 0 mm 1 mps 752 mmHg 85%
    04:00 +18°C° 0 mm 0 mps 752 mmHg 85%
    05:00 +20°C° 0 mm 0 mps 752 mmHg 79%
    06:00 +21°C° 0 mm 0 mps 752 mmHg 73%
    07:00 +23°C° 0 mm 0 mps 752 mmHg 68%
    08:00 +25°C° 0 mm 0 mps 752 mmHg 61%
    09:00 +28°C° 0 mm 1 mps 753 mmHg 55%
    10:00 +30°C° 0 mm 1 mps 753 mmHg 49%
    11:00 +31°C° 0 mm 1 mps 752 mmHg 45%
    12:00 +32°C° 0 mm 1 mps 752 mmHg 40%
    13:00 +32°C° 0 mm 1 mps 752 mmHg 36%
    14:00 +34°C° 0 mm 2 mps 751 mmHg 36%
    15:00 +34°C° 0 mm 2 mps 751 mmHg 35%
    16:00 +34°C° 0 mm 3 mps 751 mmHg 35%
    17:00 +31°C° 0 mm 3 mps 751 mmHg 41%
    18:00 +29°C° 0 mm 3 mps 751 mmHg 47%
    19:00 +28°C° 0 mm 3 mps 751 mmHg 54%
    20:00 +26°C° 0 mm 3 mps 751 mmHg 60%
    21:00 +24°C° 0 mm 2 mps 751 mmHg 66%
    22:00 +23°C° 0 mm 2 mps 751 mmHg 72%
    23:00 +22°C° 0 mm 1 mps 751 mmHg 75%

    Day after tomorrow, 26 July, Friday

    Time Temperature Precipitation Wind Pressure Humidity
    00:00 +22°C° 0 mm 1 mps 751 mmHg 78%
    01:00 +21°C° 0 mm 1 mps 751 mmHg 81%
    02:00 +20°C° 0 mm 1 mps 751 mmHg 82%
    03:00 +20°C° 0 mm 1 mps 751 mmHg 83%
    04:00 +19°C° 0 mm 1 mps 751 mmHg 84%
    05:00 +19°C° 0 mm 2 mps 751 mmHg 78%
    06:00 +20°C° 0 mm 2 mps 751 mmHg 73%
    07:00 +21°C° 0 mm 2 mps 751 mmHg 67%
    08:00 +24°C° 0 mm 2 mps 751 mmHg 61%
    09:00 +25°C° 0 mm 3 mps 751 mmHg 55%
    10:00 +26°C° 0 mm 3 mps 751 mmHg 49%
    11:00 +27°C° 0 mm 3 mps 750 mmHg 46%
    12:00 +28°C° 0 mm 4 mps 750 mmHg 43%
    13:00 +29°C° 0 mm 4 mps 749 mmHg 40%
    14:00 +29°C° 0 mm 4 mps 749 mmHg 41%
    15:00 +29°C° 0 mm 5 mps 748 mmHg 42%
    16:00 +28°C° 0 mm 5 mps 748 mmHg 43%
    17:00 +27°C° 0 mm 4 mps 748 mmHg 49%
    18:00 +26°C° 0 mm 3 mps 748 mmHg 55%
    19:00 +25°C° 0 mm 3 mps 748 mmHg 61%
    20:00 +23°C° 0 mm 2 mps 748 mmHg 63%
    21:00 +21°C° 0 mm 2 mps 748 mmHg 66%
    22:00 +20°C° 0 mm 2 mps 748 mmHg 68%
    23:00 +19°C° 0 mm 2 mps 748 mmHg 71%

    27 July, Saturday

    Time Temperature Precipitation Wind Pressure Humidity
    00:00 +19°C° 0 mm 2 mps 748 mmHg 75%
    01:00 +18°C° 0 mm 2 mps 748 mmHg 79%
    02:00 +17°C° 0 mm 2 mps 748 mmHg 82%
    03:00 +17°C° 0 mm 2 mps 747 mmHg 86%
    04:00 +16°C° 0 mm 1 mps 747 mmHg 90%
    05:00 +17°C° 0 mm 2 mps 747 mmHg 84%
    06:00 +19°C° 0 mm 2 mps 747 mmHg 79%
    07:00 +20°C° 0 mm 2 mps 747 mmHg 74%
    08:00 +22°C° 0 mm 3 mps 747 mmHg 67%
    09:00 +25°C° 0 mm 4 mps 747 mmHg 61%
    10:00 +26°C° 0 mm 4 mps 747 mmHg 54%
    11:00 +27°C° 0 mm 5 mps 747 mmHg 52%
    12:00 +28°C° 0 mm 5 mps 746 mmHg 49%
    13:00 +29°C° 0 mm 5 mps 746 mmHg 46%
    14:00 +29°C° 0 mm 5 mps 746 mmHg 46%
    15:00 +29°C° 0 mm 5 mps 745 mmHg 46%
    16:00 +29°C° 0 mm 5 mps 745 mmHg 45%
    17:00 +28°C° 0 mm 4 mps 745 mmHg 49%
    18:00 +26°C° 0 mm 4 mps 745 mmHg 53%
    19:00 +25°C° 0 mm 3 mps 745 mmHg 57%
    20:00 +24°C° 0 mm 3 mps 745 mmHg 62%
    21:00 +22°C° 0 mm 3 mps 745 mmHg 68%
    22:00 +20°C° 0 mm 2 mps 746 mmHg 73%
    23:00 +20°C° 0 mm 2 mps 745 mmHg 77%

    28 July, Sunday

    Time Temperature Precipitation Wind Pressure Humidity
    00:00 +19°C° 0 mm 2 mps 745 mmHg 81%
    01:00 +19°C° 0 mm 2 mps 745 mmHg 85%
    02:00 +18°C° 0 mm 2 mps 745 mmHg 88%
    03:00 +18°C° 0 mm 2 mps 745 mmHg 91%
    04:00 +18°C° 0 mm 1 mps 745 mmHg 94%
    05:00 +19°C° 0 mm 2 mps 745 mmHg 89%
    06:00 +20°C° 0 mm 2 mps 745 mmHg 84%
    07:00 +22°C° 0 mm 3 mps 745 mmHg 78%
    08:00 +25°C° 0 mm 4 mps 746 mmHg 71%
    09:00 +26°C° 0 mm 4 mps 746 mmHg 64%
    10:00 +28°C° 0 mm 5 mps 746 mmHg 56%
    11:00 +29°C° 0 mm 6 mps 746 mmHg 53%
    12:00 +29°C° 0 mm 6 mps 745 mmHg 50%
    13:00 +30°C° 0 mm 6 mps 745 mmHg 48%
    14:00 +30°C° 0 mm 6 mps 745 mmHg 48%
    15:00 +30°C° 0 mm 6 mps 745 mmHg 48%
    16:00 +30°C° 0 mm 6 mps 745 mmHg 48%
    17:00 +29°C° 0 mm 5 mps 745 mmHg 50%
    18:00 +28°C° 0 mm 4 mps 745 mmHg 53%
    19:00 +27°C° 0 mm 4 mps 746 mmHg 56%
    20:00 +26°C° 0 mm 3 mps 746 mmHg 61%
    21:00 +24°C° 0 mm 3 mps 746 mmHg 66%
    22:00 +23°C° 0 mm 2 mps 747 mmHg 71%
    23:00 +21°C° 0 mm 2 mps 747 mmHg 74%

    29 July, Monday

    Time Temperature Precipitation Wind Pressure Humidity
    00:00 +21°C° 0 mm 2 mps 747 mmHg 77%
    01:00 +21°C° 0 mm 1 mps 747 mmHg 80%
    02:00 +21°C° 0 mm 1 mps 748 mmHg 84%
    03:00 +20°C° 0 mm 1 mps 748 mmHg 87%
    04:00 +20°C° 0 mm 1 mps 748 mmHg 90%
    05:00 +21°C° 0 mm 1 mps 748 mmHg 86%
    06:00 +23°C° 0 mm 2 mps 748 mmHg 81%
    07:00 +24°C° 0 mm 2 mps 748 mmHg 76%
    08:00 +26°C° 0 mm 2 mps 749 mmHg 68%
    09:00 +28°C° 0 mm 3 mps 749 mmHg 60%
    10:00 +30°C° 0 mm 4 mps 749 mmHg 52%
    11:00 +30°C° 0 mm 4 mps 749 mmHg 50%
    12:00 +32°C° 0 mm 4 mps 749 mmHg 47%
    13:00 +32°C° 0 mm 4 mps 748 mmHg 45%
    14:00 +32°C° 0 mm 4 mps 748 mmHg 48%
    15:00 +30°C° 0 mm 4 mps 748 mmHg 51%
    16:00 +30°C° 0 mm 4 mps 748 mmHg 53%
    17:00 +29°C° 0 mm 4 mps 749 mmHg 55%
    18:00 +28°C° 0 mm 4 mps 749 mmHg 56%
    19:00 +27°C° 0 mm 4 mps 749 mmHg 58%
    20:00 +25°C° 0 mm 3 mps 749 mmHg 58%
    21:00 +22°C° 0 mm 3 mps 750 mmHg 58%
    22:00 +20°C° 0 mm 3 mps 750 mmHg 59%
    23:00 +19°C° 0 mm 2 mps 750 mmHg 62%
    Show more